Time[GMT],air_temperature[C](-3m),wind_speed[m/s](-4m),wind_gust[m/s](-4m),visibility[m](-3m),barometric_pressure[millibars](-3m),wind_2_direction[degrees_true](-4m),wind_2_gust[m/s](-4m),wind_2_gust_1s[m/s](-4m),wind_2_min[m/s](-4m),wind_2_percent_good[1](-4m),wind_2_speed[m/s](-4m),wind_direction[degrees_true](-4m),wind_gust_1s[m/s](-4m),wind_min[m/s](-4m)
2011-06-03 21:00,10.9,,,2882,1012.17,296.00,7.47,8.26,4.29,1.00,6.28,,,
2011-06-03 22:00,10.9,,,2846,1012.84,317.60,6.11,6.59,3.53,1.00,5.05,,,
2011-06-03 23:00,11.0,,,2884,1013.46,336.10,4.77,5.68,2.66,1.00,4.09,,,
2011-06-04 00:00,10.8,,,2888,1014.13,326.10,4.60,5.72,1.69,1.00,3.60,,,
2011-06-04 01:00,10.7,,,2855,1014.81,5.13,3.47,4.33,1.87,1.00,2.99,,,
2011-06-04 02:00,10.4,,,2845,1015.24,36.10,2.93,3.76,1.19,1.00,2.26,,,
2011-06-04 03:00,10.0,,,2842,1015.42,20.25,1.48,1.94,0.37,1.00,1.05,,,
2011-06-04 04:00,10.1,,,2825,1015.61,1.70,2.16,2.70,1.17,1.00,1.82,,,
2011-06-04 05:00,9.6,,,2864,1015.67,313.70,2.38,3.05,1.37,1.00,2.11,,,
2011-06-04 06:00,9.8,,,2859,1015.79,319.90,2.73,3.23,1.08,1.00,2.28,,,
2011-06-04 07:00,9.7,,,2863,1015.85,346.84,3.88,4.31,1.99,1.00,3.09,,,
2011-06-04 08:00,9.5,,,2877,1016.16,339.30,2.77,3.31,1.43,1.00,2.36,,,
2011-06-04 09:00,9.5,,,2882,1016.34,331.10,2.70,3.09,1.20,1.00,2.25,,,
2011-06-04 10:00,9.4,,,2654,1016.83,1.34,3.50,4.12,1.21,1.00,2.78,,,
2011-06-04 11:00,9.4,,,2832,1017.08,11.01,5.41,5.92,3.05,1.00,4.61,,,
2011-06-04 12:00,9.0,,,2785,1017.57,7.97,7.37,8.34,4.33,1.00,6.47,,,
2011-06-04 13:00,8.6,,,2765,1017.70,18.60,6.77,7.55,3.30,1.00,5.85,,,
2011-06-04 14:00,8.4,,,2778,1017.76,25.50,7.03,7.76,3.37,1.00,5.74,,,
2011-06-04 15:00,8.4,,,2822,1017.63,30.29,6.41,7.66,2.83,1.00,5.56,,,
2011-06-04 16:00,8.4,,,2867,1017.57,36.23,6.63,7.16,3.40,1.00,5.24,,,
2011-06-04 17:00,8.7,,,2851,1017.33,41.98,7.42,8.10,4.59,1.00,6.27,,,
2011-06-04 18:00,9.1,,,2858,1018.00,51.89,5.60,6.49,3.20,1.00,4.99,,,
2011-06-04 19:00,9.5,,,2795,1018.56,8.60,3.28,3.86,1.44,1.00,2.74,,,
2011-06-04 20:00,9.8,,,2769,1018.49,351.72,4.36,4.63,1.95,1.00,3.34,,,
2011-06-04 21:00,10.4,,,2767,1018.43,345.89,3.54,3.98,1.36,1.00,2.54,,,
2011-06-04 23:00,10.8,,,2707,1017.82,354.65,4.34,4.61,2.74,1.00,3.71,,,
2011-06-05 00:00,10.1,,,2385,1018.06,355.33,4.42,4.83,2.55,1.00,3.82,,,
2011-06-05 01:00,10.1,,,2887,1019.05,334.30,3.23,3.72,1.98,1.00,2.77,,,
2011-06-05 02:00,10.1,,,2904,1019.29,335.10,3.36,3.87,1.91,1.00,2.85,,,
2011-06-05 03:00,10.1,,,2891,1018.68,24.87,3.85,4.15,2.42,1.00,3.27,,,
2011-06-05 04:00,10.1,,,2894,1018.43,352.06,4.35,4.60,2.43,1.00,3.57,,,
2011-06-05 05:00,10.1,,,2906,1018.13,341.60,4.70,5.19,2.86,1.00,4.03,,,
2011-06-05 06:00,9.9,,,2900,1018.00,3.19,5.20,5.70,2.96,1.00,4.32,,,
2011-06-05 07:00,9.8,,,2886,1018.31,8.80,5.47,5.89,3.44,1.00,4.76,,,
2011-06-05 08:00,9.7,,,2891,1018.74,3.44,6.37,6.78,4.18,1.00,5.42,,,
2011-06-05 09:00,9.7,,,2873,1018.74,12.74,6.86,7.37,4.19,1.00,5.81,,,
2011-06-05 10:00,10.1,,,2885,1018.31,14.16,7.07,7.52,4.15,1.00,6.09,,,
2011-06-05 11:00,9.9,,,2856,1018.86,52.26,5.86,6.46,3.69,1.00,5.08,,,
2011-06-05 12:00,9.8,,,2840,1019.72,27.78,5.21,5.80,3.18,1.00,4.44,,,
2011-06-05 13:00,9.6,,,2799,1019.05,49.52,5.71,6.48,3.15,1.00,4.82,,,
2011-06-05 14:00,9.8,,,2795,1018.99,27.03,4.38,4.97,2.45,1.00,3.68,,,
2011-06-05 15:00,10.0,,,2769,1018.86,353.29,4.30,4.77,2.41,1.00,3.66,,,
2011-06-05 16:00,10.0,,,2793,1018.56,9.97,3.52,3.99,2.17,1.00,2.98,,,
2011-06-05 17:00,,,,,,,,,,,,,,
2011-06-05 18:00,10.2,,,2841,1016.65,14.90,4.47,5.10,2.74,1.00,3.85,,,
2011-06-05 19:00,10.0,,,2814,1016.71,13.27,4.08,4.54,2.33,1.00,3.44,,,
2011-06-05 20:00,10.2,,,2834,1016.59,357.63,3.30,3.91,1.79,1.00,2.78,,,
2011-06-05 21:00,10.4,,,2802,1016.28,28.35,2.61,3.20,1.26,1.00,2.18,,,
2011-06-05 22:00,10.7,,,2882,1016.04,316.30,4.15,4.74,2.76,1.00,3.71,,,
2011-06-05 23:00,11.4,,,2865,1016.16,298.90,4.50,4.76,2.86,1.00,3.86,,,
2011-06-06 00:00,10.9,,,2858,1016.10,291.40,3.99,4.25,2.46,1.00,3.42,,,
2011-06-06 01:00,10.8,,,2868,1016.16,296.90,5.18,5.58,3.31,1.00,4.50,,,
2011-06-06 02:00,10.7,,,2897,1016.04,311.40,5.02,5.63,3.11,1.00,4.39,,,
2011-06-06 03:00,10.8,,,2879,1015.67,334.10,5.72,6.17,3.15,1.00,4.50,,,
2011-06-06 04:00,10.6,,,2892,1015.54,358.74,4.26,4.84,2.37,1.00,3.61,,,
2011-06-06 05:00,10.9,,,2882,1014.87,335.70,6.19,6.78,3.96,1.00,5.36,,,
2011-06-06 06:00,10.8,,,2876,1014.68,344.05,4.24,4.73,2.63,1.00,3.65,,,
2011-06-06 07:00,10.7,,,2872,1014.56,348.89,4.46,4.83,2.56,1.00,3.75,,,
2011-06-06 08:00,10.4,,,2877,1014.38,1.25,3.94,4.29,2.37,1.00,3.43,,,
2011-06-06 09:00,10.4,,,2851,1014.68,2.25,3.94,4.45,2.52,1.00,3.48,,,
2011-06-06 10:00,10.6,,,2820,1014.87,3.44,4.98,5.59,3.36,1.00,4.39,,,
2011-06-06 11:00,10.7,,,2834,1015.05,27.58,6.45,7.11,3.66,1.00,5.55,,,
2011-06-06 12:00,10.4,,,2766,1015.24,22.92,6.91,7.88,4.14,1.00,5.81,,,
2011-06-06 13:00,10.2,,,2734,1015.30,18.15,7.45,8.63,4.17,1.00,6.23,,,
2011-06-06 14:00,10.1,,,2762,1015.42,21.82,8.07,8.60,4.74,1.00,6.75,,,
2011-06-06 15:00,9.8,,,2758,1015.24,21.95,8.45,9.23,4.88,1.00,7.20,,,
2011-06-06 16:00,10.1,,,2797,1014.99,28.28,7.45,8.48,3.92,1.00,6.34,,,
2011-06-06 17:00,10.6,,,2736,1014.44,15.79,6.57,7.37,3.14,1.00,5.25,,,
2011-06-06 18:00,10.6,,,2748,1014.07,59.30,7.07,7.75,4.05,1.00,6.07,,,
2011-06-06 19:00,10.8,,,2788,1013.76,54.10,5.61,6.12,2.52,1.00,4.86,,,
2011-06-06 20:00,11.2,,,2748,1013.89,346.46,3.23,4.41,1.40,1.00,2.64,,,
2011-06-06 21:00,11.6,,,2796,1013.58,314.60,2.97,3.82,1.31,1.00,2.53,,,
2011-06-06 22:00,11.9,,,2786,1013.76,332.90,2.53,3.03,1.30,1.00,2.23,,,
2011-06-06 23:00,11.4,,,2839,1014.01,316.50,2.88,3.66,1.66,1.00,2.43,,,
2011-06-07 00:00,11.2,,,2840,1013.70,324.10,2.02,2.52,0.63,1.00,1.64,,,
2011-06-07 02:00,10.9,,,2901,1014.01,318.20,4.47,5.01,2.71,1.00,3.73,,,
2011-06-07 03:00,11.0,,,2897,1014.01,318.90,4.76,5.16,2.34,1.00,3.95,,,
2011-06-07 04:00,11.3,,,2892,1014.01,312.10,4.94,5.70,3.23,1.00,4.47,,,
2011-06-07 05:00,11.1,,,2898,1013.70,334.20,3.23,3.65,1.69,1.00,2.67,,,
2011-06-07 06:00,11.1,,,2901,1013.33,329.60,3.96,4.47,2.37,1.00,3.55,,,
2011-06-07 07:00,11.0,,,2882,1012.60,24.11,2.67,3.08,1.35,1.00,2.27,,,
2011-06-07 08:00,10.7,,,2893,1012.90,315.10,2.98,3.76,1.48,1.00,2.44,,,
2011-06-07 09:00,10.8,,,2903,1013.40,331.90,3.02,3.74,1.91,1.00,2.70,,,
2011-06-07 10:00,11.7,,, 757,1013.46,326.70,2.53,3.09,1.38,1.00,2.26,,,
2011-06-07 11:00,11.2,,,2801,1013.46,18.64,2.52,2.92,1.79,1.00,2.31,,,
2011-06-07 12:00,12.0,,,2822,1013.76,10.32,2.43,2.74,1.56,1.00,2.13,,,
2011-06-07 13:00,12.3,,,2697,1013.95,29.18,1.91,2.16,0.98,1.00,1.54,,,
2011-06-07 14:00,10.9,,,2527,1014.01,29.51,3.29,3.61,1.59,1.00,2.77,,,
2011-06-07 15:00,11.8,,,2694,1013.76,17.71,2.35,2.66,1.07,1.00,1.99,,,
2011-06-07 16:00,11.7,,,2572,1013.52,43.41,3.92,4.22,2.38,1.00,3.28,,,
2011-06-07 17:00,11.6,,,2741,1012.97,60.30,3.47,3.86,1.91,1.00,2.87,,,
2011-06-07 18:00,11.4,,,2706,1012.60,63.40,2.81,3.25,1.27,1.00,2.21,,,
2011-06-07 19:00,11.1,,,2654,1012.17,97.30,3.56,3.86,0.62,1.00,2.48,,,
2011-06-07 20:00,11.0,,,2662,1011.92,111.60,4.09,4.53,1.83,1.00,3.40,,,
2011-06-07 21:00,9.9,,,1525,1011.62,160.10,2.83,3.35,1.17,1.00,2.11,,,
2011-06-07 22:00,10.3,,,2755,1012.17,238.00,2.56,3.10,1.16,1.00,2.07,,,
2011-06-07 23:00,10.6,,,2792,1011.92,197.60,2.99,3.19,1.92,1.00,2.59,,,
2011-06-08 00:00,10.9,,,2796,1011.98,217.10,3.01,3.31,1.73,1.00,2.50,,,
2011-06-08 01:00,11.2,,,2869,1012.66,227.70,2.76,3.00,1.87,1.00,2.42,,,
2011-06-08 02:00,11.2,,,2834,1012.97,253.10,1.64,2.13,0.84,1.00,1.40,,,
2011-06-08 03:00,11.0,,,2808,1012.60,266.60,2.09,2.47,0.74,1.00,1.57,,,
2011-06-08 04:00,11.3,,,2876,1012.84,261.90,3.46,3.82,2.08,1.00,3.04,,,
2011-06-08 05:00,11.4,,,2889,1011.98,235.60,1.89,2.19,0.89,1.00,1.48,,,
2011-06-08 06:00,11.2,,,2895,1012.17,31.23,0.92,1.24,0.09,1.00,0.64,,,
2011-06-08 07:00,11.0,,,2889,1011.68,65.70,1.65,2.05,0.54,1.00,1.23,,,
2011-06-08 08:00,11.0,,,2882,1011.43,107.00,1.68,2.11,0.25,1.00,1.13,,,
2011-06-08 09:00,11.1,,,2718,1011.19,136.00,2.46,2.78,1.48,1.00,2.21,,,
2011-06-08 10:00,11.3,,,2821,1010.94,164.40,3.01,3.23,1.98,1.00,2.60,,,
2011-06-08 11:00,11.5,,,2746,1011.92,99.10,3.16,3.51,2.01,1.00,2.80,,,
2011-06-08 12:00,11.7,,,2516,1012.11,130.60,3.77,3.93,1.93,1.00,3.17,,,
2011-06-08 13:00,,,,,,,,,,,,,,
2011-06-08 14:00,11.9,,,2663,1012.23,129.90,3.61,4.13,1.58,1.00,3.18,,,
2011-06-08 15:00,12.1,,,2694,1012.17,150.50,4.86,5.23,3.30,1.00,4.20,,,
2011-06-08 17:00,12.8,,,2609,1011.80,155.50,4.64,5.14,3.15,1.00,4.10,,,
2011-06-08 18:00,12.8,,,2623,1011.00,161.00,6.36,6.77,3.67,1.00,5.16,,,
2011-06-08 19:00,12.3,,,2747,1010.45,170.40,5.85,6.74,3.52,1.00,5.07,,,
2011-06-08 20:00,12.2,,,2744,1010.21,172.90,4.94,5.61,2.94,1.00,4.25,,,
2011-06-08 21:00,12.2,,,2673,1010.27,177.80,4.98,5.43,2.92,1.00,4.25,,,
2011-06-08 22:00,11.6,,, 652,1009.96,185.50,5.22,6.12,2.77,1.00,4.52,,,
2011-06-08 23:00,11.7,,,1247,1009.96,184.80,4.70,5.20,2.51,1.00,3.95,,,
2011-06-09 00:00,11.6,,, 226,1009.84,184.40,5.84,6.64,2.89,1.00,4.77,,,
2011-06-09 01:00,11.5,4.6,5.5, 324,1009.96,,,,,0.81,,168.90,5.88,3.53
2011-06-09 02:00,11.7,,,1137,1009.29,177.30,7.26,7.93,4.42,1.00,6.26,,,
2011-06-09 03:00,11.9,,,2322,1008.73,166.70,7.18,7.82,4.80,1.00,6.29,,,
2011-06-09 04:00,12.1,,,2348,1008.30,174.90,6.61,7.34,3.88,1.00,5.77,,,
2011-06-09 05:00,12.3,,,2360,1006.77,169.20,7.23,7.76,4.84,1.00,6.41,,,
2011-06-09 06:00,,,,,,,,,,,,,,
2011-06-09 07:00,14.0,,,2539,1007.94,70.80,9.07,9.79,3.19,1.00,5.70,,,
2011-06-09 08:00,12.1,,,2357,1006.53,116.70,10.49,11.45,5.87,1.00,8.56,,,
2011-06-09 09:00,12.2,,,2418,1005.18,131.60,9.98,10.89,6.21,1.00,8.47,,,
2011-06-09 10:00,12.4,,,2254,1006.16,153.60,8.16,8.97,5.14,1.00,7.02,,,
2011-06-09 11:00,12.4,,,2203,1007.20,173.70,6.06,6.99,3.16,1.00,4.98,,,
2011-06-09 12:00,12.3,,,2030,1007.81,187.20,3.83,4.61,1.89,1.00,3.26,,,
2011-06-09 13:00,12.3,,,2193,1007.75,237.70,3.06,3.96,0.60,1.00,2.14,,,
2011-06-09 14:00,13.7,,,2373,1007.51,339.40,1.60,2.69,0.04,1.00,1.09,,,
2011-06-09 15:00,13.8,,,2428,1007.02,350.86,2.13,2.79,0.25,1.00,1.34,,,
2011-06-09 16:00,13.9,,,2140,1007.57,310.60,3.28,4.02,1.34,1.00,2.67,,,
2011-06-09 17:00,,,,,,,,,,,,,,
2011-06-09 18:00,14.8,,,2289,1006.59,100.60,2.93,3.43,0.99,1.00,2.17,,,
2011-06-09 19:00,13.1,,,2107,1005.92,133.90,5.83,6.17,3.30,1.00,5.01,,,
2011-06-09 20:00,12.9,,,2385,1006.53,133.90,4.90,5.45,2.86,1.00,4.21,,,
2011-06-09 21:00,12.3,,,2324,1006.22,132.60,5.97,6.73,3.65,1.00,5.15,,,
2011-06-09 22:00,12.4,,,2410,1006.65,175.40,6.70,7.43,3.56,1.00,5.59,,,
2011-06-09 23:00,12.9,,,2356,1006.53,175.60,6.66,7.47,3.95,1.00,6.02,,,
2011-06-10 00:00,13.5,,,2349,1006.53,218.80,7.34,8.03,4.29,1.00,6.27,,,
2011-06-10 01:00,13.6,,,2158,1006.53,198.40,7.60,8.32,2.07,1.00,4.41,,,
2011-06-10 02:00,14.6,,,2431,1008.12,344.82,8.44,8.99,3.72,1.00,5.62,,,
2011-06-10 03:00,13.2,,,2390,1007.02,290.00,10.44,12.00,1.11,1.00,4.48,,,
2011-06-10 04:00,13.6,,,2401,1007.63,235.10,3.31,3.80,1.86,1.00,2.89,,,
2011-06-10 05:00,13.9,,,2561,1006.83,114.00,2.98,3.61,0.32,1.00,1.85,,,
2011-06-10 06:00,13.8,,,2516,1006.34,86.90,2.28,2.67,1.04,1.00,1.86,,,
2011-06-10 07:00,13.1,,,2444,1007.02,21.76,7.54,8.13,4.09,1.00,5.95,,,
2011-06-10 08:00,13.2,,,2435,1008.49,4.49,3.79,4.51,1.60,1.00,3.22,,,
2011-06-10 09:00,12.9,,,2382,1008.86,1.59,3.28,3.90,1.67,1.00,2.77,,,
2011-06-10 10:00,13.0,,,2496,1009.41,348.17,3.47,4.23,1.88,1.00,3.07,,,
2011-06-10 11:00,13.5,,,2363,1010.45,339.50,5.99,6.91,4.09,1.00,5.24,,,
2011-06-10 12:00,13.1,,,2585,1011.13,348.05,7.54,7.99,4.24,1.00,6.20,,,
2011-06-10 13:00,13.3,,,2745,1011.98,8.77,8.80,9.86,5.60,1.00,7.56,,,
2011-06-10 14:00,12.6,,,2686,1012.23,30.53,9.51,10.13,5.48,1.00,8.18,,,
2011-06-10 15:00,12.3,,,2534,1013.76,28.15,7.32,7.98,4.44,1.00,6.41,,,
2011-06-10 16:00,,,,,,,,,,,,,,
2011-06-10 17:00,12.5,,,2811,1014.44,16.65,4.48,4.81,1.77,1.00,3.37,,,
2011-06-10 18:00,12.9,,,2807,1014.32,31.35,1.97,2.64,0.56,1.00,1.59,,,
2011-06-10 19:00,13.8,,,2719,1014.56,346.97,2.26,2.72,0.75,1.00,1.74,,,
2011-06-10 20:00,13.6,,,2731,1014.68,290.20,2.40,2.95,1.23,1.00,2.15,,,
2011-06-10 21:00,13.8,,,2550,1014.68,281.60,3.67,4.23,1.86,1.00,3.03,,,
2011-06-10 22:00,13.8,,, 904,1015.11,257.00,3.11,3.61,1.81,1.00,2.69,,,
2011-06-10 23:00,13.6,,,2829,1015.54,184.10,2.61,3.14,1.01,1.00,2.12,,,
2011-06-11 00:00,13.2,,,2799,1015.79,271.60,4.40,5.10,2.88,1.00,3.96,,,
2011-06-11 01:00,13.0,,,2840,1017.20,31.58,1.70,2.16,0.56,1.00,1.35,,,
2011-06-11 02:00,12.4,,,2831,1018.19,17.60,1.07,1.46,0.03,1.00,0.75,,,
2011-06-11 03:00,12.3,,,2829,1018.19,4.50,1.18,1.48,0.09,1.00,0.74,,,
2011-06-11 04:00,12.8,,,2874,1018.49,318.70,2.67,3.13,1.57,1.00,2.38,,,
2011-06-11 05:00,12.8,,,2855,1018.99,339.50,3.38,3.73,2.19,1.00,2.96,,,
2011-06-11 06:00,12.9,,,2877,1019.29,334.70,2.74,3.11,1.37,1.00,2.33,,,
2011-06-11 07:00,13.4,,,2854,1019.42,359.50,3.85,4.18,2.52,1.00,3.33,,,
2011-06-11 08:00,13.0,,,2855,1019.42,20.11,4.20,4.67,2.67,1.00,3.54,,,
2011-06-11 09:00,12.6,,,2805,1019.66,53.70,3.45,3.90,2.27,1.00,2.99,,,
2011-06-11 10:00,,,,,,,,,,,,,,
2011-06-11 11:00,12.1,,,2736,1020.22,97.10,4.20,4.37,2.65,1.00,3.59,,,
2011-06-11 12:00,13.1,,,2759,1021.39,133.10,2.65,2.92,1.58,1.00,2.24,,,
2011-06-11 13:00,13.4,,,2684,1021.63,148.10,2.94,3.56,1.72,1.00,2.59,,,
2011-06-11 15:00,13.8,,,2664,1021.82,154.80,3.05,3.38,1.98,1.00,2.71,,,
2011-06-11 16:00,14.2,,,2658,1022.19,155.60,3.15,3.33,1.96,1.00,2.68,,,
2011-06-11 17:00,14.1,,,2676,1022.06,162.70,3.37,3.65,2.17,1.00,2.93,,,
2011-06-11 18:00,13.4,,,2719,1022.37,182.60,3.70,4.07,2.40,1.00,3.12,,,
2011-06-11 19:00,13.0,,,2694,1022.31,194.80,2.89,3.23,1.95,1.00,2.60,,,
2011-06-11 20:00,12.3,,,2519,1022.06,211.20,4.96,5.20,3.46,1.00,4.37,,,
2011-06-11 21:00,11.5,,,1905,1021.69,213.70,4.07,4.47,2.72,1.00,3.51,,,
2011-06-11 22:00,11.7,,,2281,1021.69,238.60,3.07,3.45,1.56,1.00,2.53,,,
2011-06-11 23:00,11.7,,,2489,1021.39,237.00,3.04,3.53,1.39,1.00,2.54,,,
2011-06-12 00:00,11.8,,,2480,1021.08,212.50,1.91,2.27,0.84,1.00,1.63,,,
2011-06-12 01:00,11.8,,,2506,1020.96,167.40,1.70,2.02,0.67,1.00,1.36,,,
2011-06-12 02:00,11.7,,,2367,1020.83,154.60,2.23,2.60,1.03,1.00,1.86,,,
2011-06-12 03:00,11.7,,,2522,1020.46,199.80,3.32,3.68,2.11,1.00,2.91,,,
2011-06-12 04:00,11.6,,,2573,1020.46,204.80,4.41,4.92,2.49,1.00,3.81,,,
2011-06-12 05:00,10.9,,,2633,1020.40,184.20,8.13,8.82,5.12,1.00,6.92,,,
2011-06-12 06:00,10.9,,,2529,1020.34,177.10,6.89,7.54,3.97,1.00,5.98,,,
2011-06-12 07:00,10.9,,,2735,1019.72,162.60,7.32,7.90,3.62,1.00,5.95,,,
2011-06-12 08:00,10.2,,,2339,1018.92,163.90,8.84,9.59,5.15,1.00,7.41,,,
2011-06-12 09:00,10.3,,,1522,1018.37,150.90,9.81,10.19,6.02,1.00,8.06,,,
2011-06-12 10:00,10.4,,,1762,1018.19,141.20,9.44,10.29,6.27,1.00,8.09,,,
2011-06-12 11:00,10.6,,,2571,1017.51,131.30,10.33,11.07,5.66,1.00,8.57,,,
2011-06-12 12:00,10.6,,,2050,1017.39,124.70,10.26,11.22,5.49,1.00,8.42,,,
2011-06-12 13:00,10.4,,,2009,1016.77,114.70,10.74,12.10,6.46,1.00,9.43,,,
2011-06-12 14:00,10.2,,,1916,1016.71,96.00,9.62,11.00,5.00,1.00,8.32,,,
2011-06-12 15:00,9.7,,, 567,1016.53,88.40,11.39,12.26,6.09,1.00,9.51,,,
2011-06-12 16:00,9.6,,,2397,1016.10,90.20,12.08,12.74,6.77,1.00,10.11,,,
2011-06-12 17:00,9.9,,,2578,1015.11,90.60,12.02,13.84,7.69,1.00,10.33,,,
2011-06-12 18:00,9.9,,,2276,1014.32,84.00,11.65,12.84,7.11,1.00,10.05,,,
2011-06-12 19:00,9.8,,,1370,1013.64,90.80,12.97,14.10,7.59,1.00,10.99,,,
2011-06-12 20:00,9.9,,,1498,1012.84,88.50,13.35,14.87,8.07,1.00,11.37,,,
2011-06-12 21:00,10.0,,,1577,1012.17,94.10,13.42,15.02,7.06,1.00,11.20,,,
2011-06-12 22:00,10.0,,,1555,1011.19,93.30,13.62,14.87,8.20,1.00,11.49,,,
2011-06-12 23:00,10.1,,,1427,1010.39,96.40,13.55,14.63,7.48,1.00,11.36,,,
2011-06-13 00:00,10.2,,,1394,1010.27,98.30,13.14,14.43,7.47,1.00,10.97,,,
2011-06-13 01:00,10.2,,,1538,1009.78,98.20,13.49,13.80,6.39,1.00,10.58,,,
2011-06-13 02:00,10.2,,,2085,1009.10,95.20,11.88,12.93,6.04,1.00,9.53,,,
2011-06-13 03:00,10.2,,,1547,1008.80,95.50,9.65,11.10,5.37,1.00,8.16,,,
2011-06-13 04:00,10.2,,, 743,1008.55,92.80,8.04,9.42,4.08,1.00,6.84,,,
2011-06-13 05:00,10.3,,,1268,1008.86,86.30,4.14,5.49,1.13,1.00,3.35,,,
2011-06-13 06:00,10.2,,,1404,1008.61,38.34,3.11,3.85,0.81,1.00,2.30,,,
2011-06-13 07:00,10.2,,,1060,1008.24,0.84,6.84,8.09,3.59,1.00,5.94,,,
2011-06-13 08:00,10.3,,,2145,1008.43,12.38,8.63,9.60,5.35,1.00,7.43,,,
2011-06-13 09:00,,,,,,,,,,,,,,
2011-06-13 10:00,10.4,,,2729,1008.86,28.29,8.99,9.51,4.59,1.00,6.82,,,
2011-06-13 11:00,10.4,,,2475,1009.16,32.09,7.56,8.28,4.34,1.00,6.37,,,
2011-06-13 12:00,10.5,,,2394,1009.78,26.24,6.10,7.09,3.12,1.00,5.09,,,
2011-06-13 13:00,10.5,,,2257,1010.27,356.99,5.62,6.60,2.66,1.00,4.70,,,
2011-06-13 14:00,10.6,,,2587,1010.45,346.07,6.07,7.08,3.46,1.00,5.17,,,
2011-06-13 15:00,10.5,,,2419,1010.88,348.61,6.95,7.91,3.33,1.00,5.82,,,
2011-06-13 16:00,10.2,,,2503,1010.76,355.25,9.51,10.97,5.58,1.00,8.24,,,
2011-06-13 17:00,10.1,,,2706,1010.63,7.66,10.61,11.29,6.45,1.00,8.94,,,
2011-06-13 18:00,10.1,,,2482,1011.00,19.94,9.63,10.40,5.08,1.00,7.87,,,
2011-06-13 19:00,10.1,,,2600,1011.31,18.50,8.79,9.74,4.14,1.00,7.30,,,
2011-06-13 20:00,10.0,,,2544,1011.19,18.57,8.81,9.63,4.73,1.00,7.51,,,
2011-06-13 21:00,10.1,,,2601,1011.25,21.66,8.34,9.26,4.45,1.00,6.80,,,
2011-06-13 22:00,10.1,,,2632,1011.25,23.95,9.25,10.39,5.23,1.00,8.18,,,
2011-06-13 23:00,10.2,,,2602,1011.19,19.87,10.88,11.72,6.39,1.00,9.32,,,
2011-06-14 00:00,10.0,,,2515,1011.55,18.44,10.75,11.86,5.37,1.00,8.57,,,
2011-06-14 01:00,10.0,,,2504,1011.68,20.00,10.29,10.97,5.38,1.00,8.58,,,
2011-06-14 02:00,9.9,,,2406,1011.62,19.11,10.09,11.26,5.94,1.00,8.70,,,
2011-06-14 03:00,,,,,,,,,,,,,,
2011-06-14 04:00,,,,,,,,,,,,,,
2011-06-14 05:00,9.8,,,2294,1011.19,22.43,9.28,10.56,5.29,1.00,8.08,,,
2011-06-14 06:00,9.8,,,1495,1010.76,22.53,9.81,10.60,5.48,1.00,8.46,,,
2011-06-14 07:00,9.7,,,2474,1010.45,24.37,8.99,9.94,5.17,1.00,7.73,,,
2011-06-14 08:00,9.7,,,1865,1010.08,25.29,10.55,11.62,6.94,1.00,9.09,,,
2011-06-14 09:00,9.7,,,2368,1009.96,42.55,10.87,12.06,5.94,1.00,8.94,,,
2011-06-14 10:00,9.6,,,1913,1010.70,39.55,9.90,10.89,5.48,1.00,8.01,,,
2011-06-14 11:00,9.5,,,1447,1010.39,32.43,10.98,12.36,6.24,1.00,9.26,,,
2011-06-14 12:00,9.8,,,2577,1010.45,37.97,10.74,11.81,6.03,1.00,9.20,,,
2011-06-14 13:00,9.7,,,2486,1010.94,36.66,10.31,11.84,4.81,1.00,8.18,,,
2011-06-14 14:00,9.6,,,1744,1009.65,35.37,11.91,13.22,6.63,1.00,10.07,,,
2011-06-14 15:00,9.6,,,2314,1009.65,39.15,10.08,11.35,5.29,1.00,8.66,,,
2011-06-14 16:00,,,,,,,,,,,,,,
2011-06-14 17:00,,,,,,,,,,,,,,
2011-06-14 18:00,9.7,,,2457,1009.29,41.86,8.92,9.72,4.96,1.00,7.83,,,
2011-06-14 19:00,9.8,,,1225,1008.61,35.53,9.74,10.61,5.49,1.00,8.17,,,
2011-06-14 20:00,10.2,,,2593,1008.06,18.00,9.63,10.08,4.92,1.00,7.67,,,
2011-06-14 21:00,10.2,,,2514,1008.24,21.81,8.86,9.79,4.92,1.00,7.53,,,
2011-06-14 22:00,10.4,,,2566,1008.30,23.77,7.36,8.20,3.76,1.00,5.77,,,
2011-06-14 23:00,10.5,,,2149,1008.00,37.14,4.96,5.93,1.98,1.00,4.02,,,
2011-06-15 00:00,10.8,,,1844,1007.69,32.04,6.01,6.66,2.20,1.00,4.43,,,
2011-06-15 01:00,10.7,,, 589,1007.39,22.24,10.50,11.24,4.56,1.00,8.08,,,
2011-06-15 02:00,10.7,,,1250,1007.08,13.28,8.88,9.52,4.86,1.00,7.16,,,
2011-06-15 04:00,,,,,,,,,,,,,,
2011-06-15 05:00,10.5,,, 735,1006.41,9.20,8.04,8.62,5.12,1.00,6.75,,,
2011-06-15 06:00,10.7,,,1415,1005.98,1.89,10.78,11.53,5.34,1.00,8.30,,,
2011-06-15 07:00,10.7,,,1291,1005.36,10.12,9.31,10.26,5.68,1.00,8.26,,,
2011-06-15 08:00,10.7,,,2157,1005.00,6.95,10.43,11.74,6.19,1.00,9.09,,,
2011-06-15 09:00,10.4,,,1805,1005.18,14.90,12.55,13.48,6.97,1.00,10.43,,,
2011-06-15 10:00,10.3,,,1768,1005.49,15.66,11.34,12.68,6.29,1.00,9.49,,,
2011-06-15 11:00,10.2,,,1677,1005.92,13.13,11.80,12.59,6.14,1.00,10.12,,,
2011-06-15 12:00,10.1,,,1712,1006.22,15.54,12.24,13.01,6.23,1.00,9.98,,,
2011-06-15 13:00,10.0,,,2060,1006.28,13.53,12.19,12.80,6.35,1.00,9.76,,,
2011-06-15 14:00,10.1,,,2361,1006.41,17.03,11.39,12.72,7.07,1.00,9.98,,,
2011-06-15 15:00,10.0,,,1916,1006.65,16.63,11.79,12.48,6.14,1.00,9.74,,,
2011-06-15 16:00,,,,,,,,,,,,,,
2011-06-15 17:00,,,,,,,,,,,,,,
2011-06-15 18:00,,,,,,,,,,,,,,
2011-06-15 19:00,11.4,,,2713,1007.63,26.38,10.76,11.51,5.46,1.00,8.90,,,
2011-06-15 20:00,11.9,,,2742,1007.94,27.84,10.27,11.62,5.77,1.00,8.58,,,
2011-06-15 21:00,,,,,,,,,,,,,,
2011-06-15 22:00,11.5,,,2766,1008.80,26.14,5.76,6.55,2.96,1.00,4.83,,,
2011-06-15 23:00,12.0,,,2104,1008.73,19.78,4.16,5.23,2.12,1.00,3.51,,,
2011-06-16 00:00,12.0,,,2053,1008.67,36.63,3.68,4.52,1.75,1.00,2.91,,,
2011-06-16 01:00,11.3,,,2829,1008.73,16.30,2.92,3.51,1.77,1.00,2.62,,,
2011-06-16 02:00,11.3,,,2844,1009.16,323.60,3.15,3.66,1.52,1.00,2.69,,,
2011-06-16 03:00,11.0,,,2861,1009.16,319.40,4.13,4.73,2.66,1.00,3.61,,,
2011-06-16 04:00,11.1,,,2837,1009.29,315.30,4.49,5.20,2.37,1.00,3.81,,,
2011-06-16 05:00,11.2,,,2827,1009.41,317.70,4.00,4.62,1.99,1.00,3.25,,,
2011-06-16 06:00,10.9,,,2811,1009.41,335.10,2.02,2.65,0.75,1.00,1.62,,,
2011-06-16 07:00,11.0,,,2832,1009.59,308.20,3.11,3.81,1.66,1.00,2.66,,,
2011-06-16 08:00,10.8,,,2795,1010.02,303.90,1.40,2.13,0.04,1.00,0.88,,,
2011-06-16 09:00,10.9,,,2807,1010.82,222.90,1.01,1.45,0.02,1.00,0.70,,,
2011-06-16 10:00,11.1,,,2143,1011.06,142.70,1.67,2.15,0.69,1.00,1.38,,,
2011-06-16 11:00,11.1,,,2109,1011.19,167.50,2.63,3.00,1.49,1.00,2.25,,,
2011-06-16 12:00,11.5,,,2838,1010.94,155.00,1.72,1.98,0.54,1.00,1.28,,,
2011-06-16 13:00,12.5,,,2833,1010.94,202.90,1.22,1.49,0.30,1.00,0.85,,,
2011-06-16 14:00,13.3,,,2868,1010.70,123.40,2.39,2.73,0.98,1.00,1.87,,,
2011-06-16 15:00,13.1,,,2843,1010.88,208.80,2.76,3.30,1.40,1.00,2.20,,,
2011-06-16 16:00,13.3,,,2787,1011.00,199.70,2.09,2.47,1.02,1.00,1.69,,,
2011-06-16 17:00,13.2,,,2752,1010.88,213.30,3.15,3.36,1.52,1.00,2.39,,,
2011-06-16 18:00,13.2,,,2728,1010.94,218.70,2.28,2.67,0.85,1.00,1.75,,,
2011-06-16 19:00,13.4,,,2754,1010.94,198.60,2.56,2.78,1.34,1.00,2.10,,,
2011-06-16 20:00,13.6,,,2651,1010.70,152.60,2.40,2.72,1.22,1.00,1.92,,,
2011-06-16 21:00,13.7,,,2676,1010.88,176.10,2.74,3.09,1.56,1.00,2.28,,,
2011-06-16 22:00,13.9,,,2668,1010.45,176.20,2.61,2.85,1.13,1.00,1.97,,,
2011-06-16 23:00,13.2,,,2692,1010.76,146.40,2.82,3.12,1.70,1.00,2.40,,,
2011-06-17 00:00,12.9,,,2667,1011.19,145.00,4.09,4.41,2.37,1.00,3.55,,,
2011-06-17 01:00,12.8,,,2601,1011.49,155.20,3.89,4.32,1.10,1.00,3.29,,,
2011-06-17 02:00,12.8,,,2677,1011.49,149.70,5.05,5.20,2.52,1.00,4.06,,,
2011-06-17 03:00,12.6,,,2668,1011.49,152.20,3.90,4.26,2.40,1.00,3.30,,,
2011-06-17 04:00,13.0,,,2692,1011.74,141.60,4.71,5.21,2.91,1.00,4.05,,,
2011-06-17 05:00,12.5,,,2583,1011.55,153.70,6.21,6.64,3.73,1.00,5.28,,,
2011-06-17 06:00,12.6,,,2556,1011.55,163.60,6.71,7.39,3.83,1.00,5.58,,,
2011-06-17 07:00,13.2,,,2576,1011.62,174.20,6.34,7.01,3.12,1.00,5.07,,,
2011-06-17 08:00,12.4,,,2461,1011.92,177.80,5.09,5.45,2.98,1.00,4.34,,,
2011-06-17 09:00,12.4,,,2501,1012.54,191.20,4.67,5.35,2.42,1.00,3.97,,,
2011-06-17 10:00,12.8,,,2186,1013.03,210.30,2.93,3.37,0.84,1.00,2.25,,,
2011-06-17 11:00,12.9,,,2339,1013.58,236.50,4.84,5.31,2.67,1.00,4.07,,,
2011-06-17 12:00,,,,,,,,,,,,,,
2011-06-17 13:00,13.5,,,2552,1014.38,239.20,6.79,7.65,4.63,1.00,6.04,,,
2011-06-17 14:00,13.4,,,2710,1014.25,233.40,5.94,6.37,3.92,1.00,5.29,,,
2011-06-17 15:00,13.3,,,2552,1014.44,227.00,6.13,6.49,3.52,1.00,5.01,,,
2011-06-17 16:00,13.4,,,2505,1014.50,219.90,6.19,6.71,3.77,1.00,5.20,,,
2011-06-17 17:00,13.4,,,2488,1014.68,213.80,5.98,6.94,3.15,1.00,5.19,,,
2011-06-17 18:00,13.4,,,2522,1014.99,207.40,6.48,7.26,3.76,1.00,5.57,,,
2011-06-17 19:00,13.5,,,2465,1014.68,195.70,5.64,6.41,3.21,1.00,5.02,,,
2011-06-17 20:00,13.5,,,2525,1014.68,195.30,6.52,7.92,3.61,1.00,5.27,,,
2011-06-17 21:00,13.3,,,2504,1014.75,193.80,6.11,6.76,3.33,1.00,4.94,,,
2011-06-17 22:00,13.4,,,2562,1014.68,187.00,6.50,7.32,3.75,1.00,5.58,,,
2011-06-17 23:00,13.4,,,2550,1014.56,185.00,7.12,8.11,4.37,1.00,6.40,,,